Wind_Speed
11 15 18 19 20 21 21 20 18 16 15 13 11 10 8 7 5 4 4 4 3 3 3 3 3 3 3 4 5 6 7 7 7 7 8 8 8 9 10 11 13 14 14
8 12 15 16 17 19 19 19 17 16 14 12 11 9 8 7 5 4 4 3 3 2 2 2 1 2 2 3 4 6 6 7 7 8 8 8 8 9 10 11 12 13 14
6 10 12 15 16 17 17 17 16 15 13 11 10 9 8 7 6 5 4 4 3 2 1 0 1 1 2 3 5 6 7 7 8 8 8 9 9 10 11 12 12 13 14
6 9 11 14 14 14 15 15 15 15 13 11 10 9 8 7 6 6 5 4 3 2 1 0 0 1 2 3 5 6 7 8 8 9 9 10 10 11 12 12 13 14 15
5 8 10 12 13 13 14 15 15 14 13 12 11 9 8 7 7 6 6 5 4 3 2 1 0 1 2 3 5 6 8 9 10 10 11 11 11 12 13 13 14 14 15
5 7 9 10 11 12 13 13 14 13 12 11 11 10 9 8 8 7 6 5 4 4 3 2 2 2 3 4 6 7 8 10 11 12 12 13 13 14 15 15 16 16 17
4 6 8 9 10 11 11 12 12 12 11 11 10 10 9 9 8 7 7 6 5 4 4 4 4 4 5 6 7 8 9 10 12 13 13 14 15 16 17 17 18 18 19
2 5 7 8 9 9 10 12 12 12 11 11 11 11 10 10 9 8 8 7 6 6 6 6 6 6 7 8 9 10 11 12 13 14 15 15 16 17 18 18 19 20 20
3 4 6 8 9 9 10 11 12 12 11 11 12 12 11 11 10 9 9 9 9 9 9 9 9 10 10 11 11 12 13 14 15 16 17 17 18 18 19 19 20 21 21
4 5 7 8 9 9 10 11 12 12 12 12 12 12 12 11 11 11 11 11 11 12 12 12 13 13 13 13 14 15 16 17 18 18 19 19 20 20 21 21 22 22 23
5 6 7 8 9 9 10 11 12 12 13 13 13 13 13 13 13 13 13 14 14 14 15 15 15 16 16 16 17 18 19 19 20 21 21 22 22 22 23 23 23 23 24
8 7 8 9 9 10 11 12 13 13 14 14 15 15 15 15 16 16 16 17 17 17 18 18 19 19 19 20 20 21 21 22 23 23 24 24 25 25 25 25 25 25 26
10 10 10 10 11 11 12 13 14 14 15 16 17 17 18 18 19 19 19 20 20 21 21 22 22 23 23 23 23 24 24 25 25 26 27 27 27 27 27 27 27 27 27
12 12 11 12 13 13 14 15 15 16 17 18 18 19 20 21 22 22 23 23 24 24 25 25 26 26 26 26 26 27 27 27 28 28 29 29 29 29 29 29 29 30 30
14 14 14 15 15 16 16 17 18 18 19 20 21 22 23 24 25 25 26 27 27 28 28 28 29 29 29 29 29 29 30 30 30 30 30 31 31 31 32 32 32 32 32
17 17 17 18 18 18 19 19 20 21 22 23 24 25 26 26 27 28 29 29 30 31 31 31 31 31 31 31 31 32 32 32 32 32 32 33 33 33 34 34 34 34 34
20 20 20 21 21 21 22 22 23 23 24 25 26 28 29 29 30 30 31 32 32 32 32 32 32 32 32 33 33 34 34 34 34 34 34 35 35 35 35 36 36 37 37
23 24 24 24 24 24 25 25 25 26 27 28 29 30 31 32 33 34 34 34 34 34 33 33 33 33 34 34 35 35 35 35 35 36 37 37 37 38 38 38 38 38 39
25 26 27 26 27 27 27 27 28 29 29 30 32 32 33 34 35 36 35 36 35 34 34 34 34 35 35 36 37 38 38 38 38 38 39 40 40 40 40 41 41 41 41
26 27 29 30 30 30 30 31 32 32 33 34 34 35 35 36 36 36 36 37 36 36 36 36 36 37 37 38 40 41 41 41 41 41 42 42 42 43 43 44 44 44 44
28 29 31 32 33 34 34 35 35 35 36 36 36 36 37 38 38 38 38 38 38 38 38 39 39 39 40 41 42 44 44 45 45 44 45 46 46 46 47 47 47 46 47
30 31 32 34 36 36 36 36 36 37 37 37 38 38 37 38 39 39 39 40 40 40 40 42 42 42 43 44 46 47 47 48 47 47 48 49 49 49 50 50 50 50 50
30 31 32 34 36 37 38 38 37 38 38 39 38 39 39 40 41 41 41 42 43 43 44 44 45 46 47 47 48 50 50 51 51 52 52 52 52 52 53 53 53 53 52
29 29 31 33 35 36 36 36 37 37 38 39 39 40 41 41 42 43 44 45 45 46 47 48 49 50 51 52 52 53 54 55 56 56 55 55 55 56 56 56 55 55 54
28 29 31 32 34 35 36 36 36 36 37 39 40 40 42 42 44 45 45 46 47 48 49 50 52 53 54 55 56 56 57 58 59 59 59 59 59 59 59 58 57 56 55
28 29 30 31 32 34 36 37 37 37 38 39 40 41 41 42 43 45 46 48 49 51 52 54 55 57 58 59 60 60 61 62 63 63 63 62 61 61 60 59 58 57 55
Wind_Direction
218 210 205 203 205 206 208 211 212 214 212 215 216 219 223 233 240 247 253 254 251 263 283 290 295 307 322 325 330 331 331 330 326 321 318 311 303 296 290 286 282 278 276
216 202 199 202 201 201 202 206 209 209 209 211 214 219 221 226 231 231 235 232 232 245 266 293 309 318 328 332 340 342 343 343 337 329 323 317 308 302 296 291 286 283 280
204 191 194 193 195 200 202 204 203 204 205 209 213 218 218 220 219 219 219 217 214 217 220 266 346 342 344 348 351 351 351 348 343 339 331 322 313 306 300 295 290 286 283
196 191 190 191 194 197 200 201 200 202 206 210 214 216 216 216 215 212 210 208 203 195 186 160 16 0 356 356 353 353 352 348 343 338 333 327 319 314 308 301 294 289 286
188 188 189 191 196 194 197 199 202 204 207 209 212 216 219 219 213 208 205 204 199 192 187 190 271 340 350 350 349 348 346 343 340 336 332 327 321 317 313 308 302 296 292
184 184 185 189 193 193 198 201 203 203 205 211 215 218 217 214 211 208 207 205 203 201 205 227 266 304 327 335 339 339 339 339 337 334 331 326 323 319 315 310 306 301 296
186 189 191 194 196 198 200 201 205 207 212 215 217 218 215 212 213 213 214 214 213 217 229 247 267 288 306 316 320 326 329 331 332 332 330 326 323 320 316 312 308 304 300
212 205 204 205 204 208 209 210 211 212 216 219 219 219 217 217 219 221 224 227 229 236 246 256 269 284 295 302 306 312 317 320 323 324 325 324 322 319 316 313 310 306 303
238 226 219 216 216 218 220 219 216 218 222 225 224 223 223 224 227 230 234 237 242 249 256 263 271 279 287 294 298 301 306 311 314 317 318 320 320 318 315 313 310 308 304
261 248 238 231 227 229 230 228 226 228 230 231 230 229 229 231 234 238 243 247 251 255 260 266 271 277 282 286 292 297 301 305 309 312 314 315 315 314 314 312 310 308 305
267 257 246 239 236 237 236 236 237 237 236 237 236 236 237 240 243 246 251 255 258 261 265 268 272 275 279 284 290 294 298 301 304 307 310 311 311 311 311 310 309 307 305
267 259 251 246 243 242 241 241 241 242 242 242 242 243 245 248 251 253 256 259 262 264 267 269 271 275 279 283 288 292 296 298 300 304 306 307 308 308 308 307 307 306 304
272 267 260 255 251 248 247 247 247 247 247 247 248 249 251 254 256 258 259 262 263 265 267 269 272 276 280 284 287 290 294 296 298 301 303 304 305 305 305 305 305 304 304
269 269 267 263 260 257 255 255 255 255 254 253 254 255 256 258 259 261 263 264 265 267 269 271 274 277 280 283 286 288 292 295 297 299 301 301 302 303 303 303 302 302 302
263 264 264 264 262 260 260 259 259 259 259 259 259 259 260 260 262 263 264 266 268 269 271 273 275 278 281 284 286 288 290 293 295 297 299 300 300 301 301 301 300 300 300
262 264 263 264 264 262 262 261 261 262 263 263 264 264 264 264 265 265 266 267 269 272 274 275 278 280 282 284 286 288 290 292 294 295 297 298 299 299 300 299 299 299 299
261 262 263 262 263 263 263 263 263 262 262 263 264 265 266 267 267 268 269 269 270 272 275 277 278 280 282 284 286 287 289 290 292 294 295 296 297 297 297 297 297 298 298
261 262 263 262 262 263 264 265 265 265 265 264 264 265 267 269 268 269 270 272 272 273 275 277 279 281 282 284 286 287 288 289 291 292 293 294 295 296 295 295 295 296 296
261 261 261 262 261 263 264 265 267 268 268 268 267 268 267 268 271 271 273 274 275 275 276 278 280 282 284 286 287 287 288 289 290 291 292 293 293 294 294 294 294 295 295
259 260 262 263 262 262 263 264 266 267 268 268 268 268 268 269 271 272 273 275 276 277 278 279 281 283 284 286 287 288 288 288 288 289 290 291 291 291 292 293 293 294 294
260 261 262 263 262 262 263 264 265 267 269 269 269 268 268 269 270 272 274 276 277 278 279 280 282 283 284 285 286 287 288 288 288 288 289 290 290 290 291 292 292 292 292
261 262 263 263 262 262 264 266 267 268 269 269 268 269 270 271 271 272 275 276 278 278 279 281 283 283 284 285 286 287 288 288 288 288 289 289 289 289 290 291 291 290 290
265 264 265 265 264 263 264 265 267 269 268 267 269 270 270 271 273 275 277 278 278 279 280 283 284 285 286 286 286 286 287 287 287 288 288 288 287 288 288 289 289 289 289
267 267 268 268 268 267 266 267 268 268 269 269 269 271 273 275 275 276 279 280 280 281 283 284 285 285 285 286 286 286 286 287 287 287 287 287 287 287 288 288 287 287 287
269 270 271 273 271 270 271 273 273 272 272 273 273 274 276 277 278 278 279 280 281 282 283 284 285 285 285 285 285 285 286 286 287 287 287 287 287 287 287 287 286 286 286
273 275 275 275 276 277 276 276 274 274 276 277 276 278 280 282 282 282 283 284 284 284 284 285 285 285 285 285 285 285 285 285 286 286 287 287 287 287 286 286 285 285 284
Height
5845 5846 5847 5851 5854 5858 5861 5864 5867 5870 5872 5874 5876 5877 5878 5879 5879 5879 5879 5879 5879 5879 5879 5879 5878 5878 5878 5878 5877 5876 5875 5875 5874 5873 5872 5871 5871 5870 5870 5869 5869 5868 5868
5844 5845 5847 5850 5853 5856 5859 5862 5866 5868 5871 5873 5874 5875 5876 5877 5878 5878 5878 5878 5879 5879 5878 5878 5878 5877 5877 5877 5876 5875 5874 5873 5872 5872 5871 5870 5870 5868 5868 5867 5866 5866 5865
5844 5845 5847 5850 5852 5855 5858 5861 5864 5867 5869 5871 5873 5874 5875 5876 5877 5877 5877 5878 5878 5878 5877 5877 5877 5877 5877 5876 5875 5874 5873 5872 5871 5870 5870 5869 5868 5867 5866 5865 5864 5863 5863
5844 5846 5847 5850 5852 5855 5858 5860 5863 5866 5868 5870 5872 5873 5874 5875 5876 5876 5877 5877 5877 5877 5877 5876 5876 5876 5876 5875 5874 5873 5872 5871 5870 5869 5868 5867 5865 5864 5863 5862 5861 5860 5859
5845 5847 5848 5850 5852 5855 5857 5860 5862 5865 5867 5869 5871 5872 5873 5874 5874 5875 5876 5876 5876 5876 5876 5876 5876 5876 5875 5874 5873 5872 5871 5870 5869 5868 5866 5865 5863 5862 5861 5859 5858 5857 5856
5846 5847 5849 5850 5852 5855 5857 5859 5861 5863 5866 5868 5869 5870 5871 5872 5873 5874 5874 5875 5875 5875 5875 5875 5875 5875 5874 5873 5872 5871 5870 5869 5867 5866 5864 5863 5861 5859 5857 5856 5855 5853 5852
5847 5848 5849 5851 5853 5855 5857 5858 5860 5862 5865 5866 5867 5868 5869 5870 5871 5872 5873 5873 5874 5874 5874 5874 5874 5873 5873 5872 5871 5870 5869 5867 5866 5864 5862 5860 5858 5856 5854 5852 5851 5849 5848
5847 5848 5849 5851 5853 5854 5856 5858 5860 5861 5863 5864 5866 5867 5868 5869 5870 5871 5871 5872 5872 5872 5872 5872 5872 5871 5871 5870 5869 5868 5866 5865 5863 5861 5859 5857 5855 5853 5851 5849 5847 5845 5843
5848 5848 5849 5851 5852 5854 5855 5857 5858 5860 5861 5863 5864 5865 5866 5867 5868 5868 5869 5869 5870 5870 5870 5870 5869 5869 5868 5867 5866 5865 5863 5862 5860 5858 5856 5854 5852 5849 5847 5844 5842 5841 5838
5847 5848 5849 5850 5851 5852 5854 5855 5857 5858 5859 5861 5862 5863 5863 5864 5865 5866 5866 5867 5867 5867 5867 5867 5866 5866 5865 5864 5862 5861 5860 5858 5856 5854 5852 5850 5847 5845 5843 5840 5838 5835 5833
5847 5847 5848 5848 5849 5851 5852 5853 5855 5856 5857 5858 5859 5860 5861 5862 5862 5863 5863 5864 5864 5864 5864 5863 5862 5862 5861 5859 5858 5857 5855 5853 5852 5849 5847 5845 5843 5840 5838 5835 5833 5830 5827
5845 5846 5846 5847 5848 5849 5850 5851 5852 5853 5854 5855 5856 5857 5858 5858 5859 5859 5860 5860 5860 5860 5859 5859 5858 5857 5856 5855 5853 5852 5850 5848 5846 5844 5842 5839 5837 5834 5832 5829 5827 5824 5821
5843 5843 5844 5844 5845 5846 5847 5848 5849 5850 5851 5852 5852 5853 5854 5854 5855 5855 5855 5855 5855 5855 5854 5854 5853 5852 5850 5849 5847 5846 5844 5842 5840 5838 5835 5833 5830 5828 5825 5822 5820 5817 5815
5840 5840 5841 5841 5842 5843 5843 5844 5845 5846 5847 5847 5848 5848 5849 5849 5850 5850 5850 5850 5850 5849 5849 5848 5847 5845 5844 5843 5841 5839 5837 5835 5833 5830 5828 5825 5823 5820 5818 5815 5812 5810 5807
5836 5837 5837 5838 5838 5839 5839 5840 5841 5841 5842 5842 5843 5843 5843 5844 5844 5844 5844 5844 5844 5843 5842 5841 5840 5838 5837 5835 5833 5832 5829 5827 5825 5823 5820 5818 5815 5812 5810 5807 5804 5801 5799
5832 5833 5833 5833 5834 5834 5835 5835 5836 5836 5837 5837 5837 5837 5837 5837 5837 5837 5837 5837 5836 5836 5835 5833 5832 5831 5829 5828 5825 5823 5821 5819 5816 5814 5812 5809 5806 5804 5801 5798 5795 5792 5790
5827 5828 5828 5828 5829 5829 5829 5830 5830 5830 5830 5830 5831 5831 5830 5830 5830 5830 5830 5829 5828 5828 5827 5825 5824 5822 5821 5819 5817 5814 5812 5810 5807 5805 5802 5799 5797 5794 5791 5789 5785 5783 5780
5821 5821 5822 5822 5823 5823 5823 5824 5824 5824 5824 5824 5824 5823 5823 5823 5822 5822 5821 5821 5820 5819 5818 5816 5815 5813 5811 5809 5807 5804 5802 5800 5797 5795 5792 5789 5787 5784 5781 5778 5775 5772 5770
5815 5815 5815 5815 5816 5816 5816 5817 5817 5817 5816 5816 5816 5815 5815 5814 5814 5813 5812 5811 5811 5810 5808 5807 5805 5803 5801 5799 5797 5794 5792 5789 5787 5784 5782 5779 5776 5773 5770 5767 5764 5761 5758
5808 5808 5808 5808 5808 5809 5809 5809 5809 5808 5808 5807 5807 5807 5806 5805 5804 5803 5802 5802 5801 5799 5798 5796 5794 5792 5790 5788 5785 5782 5780 5778 5775 5773 5770 5767 5765 5761 5758 5755 5752 5749 5746
5800 5800 5800 5800 5800 5800 5800 5800 5799 5799 5799 5798 5798 5797 5796 5795 5794 5793 5792 5791 5790 5788 5787 5785 5783 5781 5779 5776 5773 5770 5767 5765 5763 5760 5758 5755 5752 5748 5745 5742 5740 5737 5733
5792 5792 5791 5791 5791 5790 5790 5790 5789 5789 5789 5788 5787 5787 5786 5785 5783 5782 5781 5780 5778 5777 5775 5773 5771 5769 5766 5764 5760 5757 5754 5751 5749 5747 5744 5741 5738 5735 5732 5729 5726 5722 5719
5783 5783 5783 5782 5781 5781 5781 5780 5779 5779 5778 5777 5776 5776 5775 5774 5773 5772 5770 5768 5766 5764 5762 5760 5758 5755 5752 5749 5746 5743 5740 5736 5734 5731 5729 5726 5723 5719 5717 5714 5711 5707 5704
5775 5775 5774 5773 5773 5772 5771 5770 5769 5768 5768 5767 5766 5765 5764 5763 5761 5760 5758 5755 5754 5752 5749 5747 5744 5741 5738 5735 5731 5728 5725 5721 5718 5715 5712 5710 5707 5703 5700 5697 5694 5691 5688
5767 5767 5766 5765 5764 5763 5761 5760 5759 5758 5757 5756 5755 5754 5753 5751 5749 5747 5745 5742 5740 5738 5735 5732 5729 5726 5723 5719 5715 5711 5708 5704 5701 5697 5695 5692 5689 5686 5683 5680 5677 5674 5671
5759 5758 5757 5756 5755 5753 5752 5750 5749 5748 5747 5745 5744 5742 5741 5739 5736 5734 5731 5728 5726 5723 5720 5716 5713 5709 5706 5702 5697 5693 5690 5686 5682 5678 5676 5673 5670 5667 5664 5661 5658 5656 5654